Weather reports worldwide

Advertisment
Winston Salem, nc, United States of America (2072822): temperature & dewpoint: 21.02.2020 09:00:00 - 27.02.2020 09:00:00 (EST)Winston Salem, nc, United States of America (2072822): wind speed & gusts: 21.02.2020 09:00:00 - 27.02.2020 09:00:00 (EST)Winston Salem, nc, United States of America (2072822): wind direction: 21.02.2020 09:00:00 - 27.02.2020 09:00:00 (EST)Winston Salem, nc, United States of America (2072822): reduced air pressure: 21.02.2020 09:00:00 - 27.02.2020 09:00:00 (EST)Winston Salem, nc, United States of America (2072822): visibility: 21.02.2020 09:00:00 - 27.02.2020 09:00:00 (EST)Winston Salem, nc, United States of America (2072822): precipitation: 21.02.2020 09:00:00 - 27.02.2020 09:00:00 (EST)
Date & Time tt [°C] td [°C] ff [km/h] ff [kn] fx [km/h] fx [kn] dd ppp [hPa] vv [km] rr [mm]
27.02.2020 09:00:00 2,2 -8,3 16 9 - - WNW 1015,4 16 -
27.02.2020 08:00:00 1,1 -7,8 9 5 - - WNW 1014,5 16 -
27.02.2020 07:00:00 0,6 -7,2 22 12 - - NW 1013,4 16 -
27.02.2020 06:00:00 1,1 -7,8 11 6 - - WNW 1012,6 16 -
27.02.2020 05:00:00 1,7 -6,7 16 9 - - WNW 1011,5 16 -
27.02.2020 04:00:00 2,8 -6,1 21 11 52 28 WNW 1010,0 16 -
27.02.2020 03:00:00 3,9 -2,8 18 10 - - WNW 1009,5 16 -
27.02.2020 02:00:00 3,9 -1,1 11 6 - - W 1008,9 16 -
27.02.2020 01:00:00 5,0 0,0 9 5 - - WNW 1008,6 16 -
27.02.2020 00:00:00 6,7 0,6 18 10 - - WNW 1008,2 16 -
26.02.2020 23:00:00 7,2 4,4 13 7 - - W 1007,6 16 -
26.02.2020 22:00:00 7,8 6,1 13 7 - - W 1007,0 16 1,0
26.02.2020 21:00:00 8,3 6,7 15 8 55 30 WNW 1006,1 13 0,8
26.02.2020 20:00:00 10,6 5,6 28 15 54 29 WNW 1004,7 16 0,0
26.02.2020 19:00:00 15,0 11,1 11 6 - - SW 1004,0 16 -
26.02.2020 18:00:00 15,6 11,7 8 4 - - SSW 1004,4 16 -
26.02.2020 17:00:00 15,6 11,1 8 4 - - S 1004,7 16 -
26.02.2020 16:00:00 16,1 10,0 9 5 - - SSW 1005,6 - -
26.02.2020 15:00:00 16,1 10,0 15 8 - - S 1006,4 16 -
26.02.2020 14:00:00 16,7 10,0 13 7 - - S 1007,5 16 -
26.02.2020 13:00:00 17,2 8,9 13 7 - - SSE 1008,4 16 -
26.02.2020 12:00:00 16,7 7,8 16 9 - - ESE 1009,7 16 -
26.02.2020 11:00:00 15,6 7,8 13 7 - - ENE 1010,5 16 -
26.02.2020 10:00:00 14,4 8,9 15 8 - - ENE 1011,0 16 -
26.02.2020 09:00:00 11,1 10,6 0 0 - - N 1011,9 16 -
26.02.2020 08:00:00 7,8 7,8 5 3 - - NNE 1011,8 0,8 -
26.02.2020 07:00:00 7,8 7,8 0 0 - - N 1011,5 1,2 -
26.02.2020 06:00:00 6,7 6,7 0 0 - - N 1010,9 0,4 -
26.02.2020 05:00:00 6,7 6,7 0 0 - - N 1010,5 0,4 -
26.02.2020 04:00:00 8,3 8,3 0 0 - - N 1010,5 1,2 -
26.02.2020 03:00:00 8,3 8,3 0 0 - - N 1010,6 1,2 -
26.02.2020 02:00:00 9,4 9,4 0 0 - - N 1010,4 4,0 -
26.02.2020 01:00:00 8,9 8,9 0 0 - - N 1010,6 0,4 -
26.02.2020 00:00:00 9,4 9,4 5 3 - - SE 1010,8 1,2 -
25.02.2020 23:00:00 10,6 10,6 0 0 - - N 1011,2 15 -
25.02.2020 22:00:00 11,7 11,1 0 0 - - N 1011,4 16 -
25.02.2020 21:00:00 12,2 11,7 0 0 - - N 1011,2 16 -
25.02.2020 20:00:00 11,7 11,7 0 0 - - N 1010,7 16 -
25.02.2020 19:00:00 13,3 11,1 0 0 - - N 1010,1 16 -
25.02.2020 18:00:00 14,4 11,7 0 0 - - N 1009,5 16 -
25.02.2020 17:00:00 14,4 11,7 5 3 - - SW 1008,8 16 -
25.02.2020 16:00:00 14,4 11,1 9 5 - - - 1008,6 16 -
25.02.2020 15:00:00 13,3 11,1 11 6 - - - 1008,8 16 -
25.02.2020 14:00:00 12,8 11,1 15 8 - - SW 1009,1 16 -
25.02.2020 13:00:00 12,2 10,6 11 6 - - SW 1010,0 16 -
25.02.2020 12:00:00 11,1 10,0 8 4 - - - 1010,4 16 -
25.02.2020 11:00:00 10,0 9,4 0 0 - - N 1010,7 16 -
25.02.2020 10:00:00 9,4 8,9 9 5 - - W 1010,7 4,8 -
25.02.2020 09:00:00 8,9 8,9 5 3 - - SW 1010,4 4,8 -
25.02.2020 08:00:00 7,8 7,8 0 0 - - N 1010,1 4,0 0,0
25.02.2020 07:00:00 7,8 7,8 8 4 - - SE 1009,7 8 1,3
25.02.2020 06:00:00 7,8 7,8 5 3 - - NW 1010,2 4,8 1,5
25.02.2020 05:00:00 7,8 7,8 5 3 - - NNW 1009,8 4,0 0,5
25.02.2020 04:00:00 7,8 7,8 0 0 - - N 1009,7 2,8 1,8
25.02.2020 03:00:00 7,8 7,8 0 0 - - N 1011,2 6 0,5
25.02.2020 02:00:00 7,8 7,8 8 4 - - - 1012,1 10 1,8
25.02.2020 01:00:00 7,2 7,2 11 6 - - S 1012,6 6 1,5
25.02.2020 00:00:00 7,2 7,2 8 4 - - S 1013,7 8 0,8
24.02.2020 23:00:00 7,2 7,2 9 5 - - S 1013,8 6 0,5
24.02.2020 22:00:00 7,2 7,2 5 3 - - - 1015,1 6 0,3
24.02.2020 21:00:00 7,2 7,2 9 5 - - S 1015,1 8 0,0
24.02.2020 20:00:00 7,2 7,2 9 5 - - S 1015,5 10 1,5
24.02.2020 19:00:00 7,2 7,2 9 5 - - S 1016,2 10 1,0
24.02.2020 18:00:00 7,2 6,7 9 5 - - SW 1016,2 10 0,3
24.02.2020 17:00:00 7,8 6,7 5 3 - - SSW 1015,9 13 0,3
24.02.2020 16:00:00 8,3 5,0 8 4 - - SW 1016,4 16 0,0
24.02.2020 15:00:00 8,9 4,4 15 8 - - SW 1016,1 16 0,3
24.02.2020 14:00:00 10,6 1,7 13 7 - - SW 1016,1 16 -
24.02.2020 13:00:00 10,6 0,6 9 5 - - - 1017,4 16 -
24.02.2020 12:00:00 10,6 0,0 15 8 - - WSW 1017,9 16 -
24.02.2020 11:00:00 11,7 -0,6 15 8 - - WSW 1018,6 16 0,0
24.02.2020 10:00:00 10,6 0,0 9 5 - - SW 1019,1 16 0,0
24.02.2020 09:00:00 9,4 -0,6 0 0 - - N 1019,5 16 -
24.02.2020 08:00:00 9,4 -1,7 0 0 - - N 1018,7 16 -
24.02.2020 07:00:00 8,9 -1,7 0 0 - - N 1018,7 16 -
24.02.2020 06:00:00 8,9 -1,7 8 4 - - SW 1018,5 16 -
24.02.2020 05:00:00 9,4 -1,7 5 3 - - SSW 1018,1 16 -
24.02.2020 04:00:00 9,4 -1,7 8 4 - - - 1018,0 16 -
24.02.2020 03:00:00 10,0 -2,2 8 4 - - - 1018,3 16 -
24.02.2020 02:00:00 10,0 -2,2 11 6 - - SW 1019,1 16 -
24.02.2020 01:00:00 10,0 -2,2 9 5 - - SSW 1019,3 16 -
24.02.2020 00:00:00 10,0 -2,8 8 4 - - SW 1019,8 16 -
23.02.2020 23:00:00 10,6 -3,3 9 5 - - SW 1020,5 16 -
23.02.2020 22:00:00 10,0 -3,9 5 3 - - S 1020,8 16 -
23.02.2020 21:00:00 10,0 -3,3 5 3 - - S 1020,8 16 -
23.02.2020 20:00:00 10,6 -2,8 5 3 - - SSW 1021,1 16 -
23.02.2020 19:00:00 11,7 -3,3 0 0 - - N 1021,2 16 -
23.02.2020 18:00:00 12,8 -4,4 9 5 - - SW 1020,7 16 -
23.02.2020 17:00:00 13,9 -5,6 13 7 - - SW 1020,7 16 -
23.02.2020 16:00:00 15,0 -5,6 15 8 - - WSW 1020,7 16 -
23.02.2020 15:00:00 15,0 -5,0 13 7 - - SW 1021,0 16 -
23.02.2020 14:00:00 13,9 -3,3 13 7 - - SSW 1021,9 16 -
23.02.2020 13:00:00 13,3 -1,7 15 8 - - SW 1023,3 16 -
23.02.2020 12:00:00 11,7 -2,8 16 9 - - S 1024,6 16 -
23.02.2020 11:00:00 10,6 -2,2 8 4 - - SW 1025,4 16 -
23.02.2020 10:00:00 7,2 -2,8 5 3 - - WSW 1025,8 16 -
23.02.2020 09:00:00 4,4 -2,8 5 3 - - - 1025,9 16 -
23.02.2020 08:00:00 1,1 -3,3 0 0 - - N 1025,9 16 -
23.02.2020 07:00:00 -1,1 -5,0 0 0 - - N 1025,4 16 -
23.02.2020 06:00:00 -1,7 -5,0 0 0 - - N 1025,8 16 -
23.02.2020 05:00:00 -1,1 -5,6 0 0 - - N 1025,7 16 -
23.02.2020 04:00:00 0,0 -5,6 0 0 - - N 1025,3 16 -
23.02.2020 03:00:00 0,6 -5,0 0 0 - - N 1025,7 16 -
23.02.2020 02:00:00 -0,6 -5,0 0 0 - - N 1026,3 16 -
23.02.2020 01:00:00 2,2 -6,1 0 0 - - N 1026,5 16 -
23.02.2020 00:00:00 2,2 -5,6 0 0 - - N 1026,5 16 -
22.02.2020 23:00:00 3,3 -6,1 0 0 - - N 1027,0 16 -
22.02.2020 22:00:00 6,7 -6,7 5 3 - - SW 1026,9 16 -
22.02.2020 21:00:00 8,3 -7,8 5 3 - - SSW 1026,7 16 -
22.02.2020 20:00:00 8,3 -6,7 8 4 - - SW 1027,1 16 -
22.02.2020 19:00:00 9,4 -7,8 5 3 - - SW 1027,1 16 -
22.02.2020 18:00:00 11,1 -7,8 8 4 - - SW 1026,9 16 -
22.02.2020 17:00:00 11,7 -8,9 9 5 - - - 1027,1 16 -
22.02.2020 16:00:00 12,2 -8,9 11 6 - - WNW 1027,5 16 -
22.02.2020 15:00:00 12,2 -8,9 9 5 - - S 1027,8 16 -
22.02.2020 14:00:00 11,1 -10,6 8 4 - - NW 1028,3 16 -
22.02.2020 13:00:00 10,0 -11,1 11 6 - - WSW 1029,4 16 -
22.02.2020 12:00:00 8,9 -10,6 5 3 - - - 1031,0 16 -
22.02.2020 11:00:00 6,1 -9,4 9 5 - - - 1031,6 16 -
22.02.2020 10:00:00 4,4 -8,3 9 5 - - W 1031,8 16 -
22.02.2020 09:00:00 2,2 -7,8 5 3 - - - 1031,8 16 -
22.02.2020 08:00:00 -2,2 -7,2 0 0 - - N 1031,4 16 -
22.02.2020 07:00:00 -5,6 -7,2 0 0 - - N 1031,2 16 -
22.02.2020 06:00:00 -4,4 -7,2 0 0 - - N 1031,0 16 -
22.02.2020 05:00:00 -3,9 -7,2 0 0 - - N 1030,1 16 -
22.02.2020 04:00:00 -3,3 -6,7 0 0 - - N 1029,9 16 -
22.02.2020 03:00:00 -2,8 -8,3 0 0 - - N 1030,1 16 -
22.02.2020 02:00:00 0,0 -8,9 8 4 - - NW 1030,8 16 -
22.02.2020 01:00:00 -1,7 -6,7 0 0 - - N 1031,2 16 -
22.02.2020 00:00:00 -1,7 -7,2 0 0 - - N 1031,9 16 -
21.02.2020 23:00:00 0,0 -7,2 0 0 - - N 1032,5 16 -
21.02.2020 22:00:00 0,6 -7,2 0 0 - - N 1032,5 16 -
21.02.2020 21:00:00 0,6 -8,9 0 0 - - N 1032,3 16 -
21.02.2020 20:00:00 0,0 -6,7 0 0 - - N 1032,5 16 -
21.02.2020 19:00:00 2,8 -10,0 0 0 - - N 1031,9 16 -
21.02.2020 18:00:00 4,4 -11,1 5 3 - - E 1031,1 16 -
21.02.2020 17:00:00 5,6 -10,0 0 0 - - N 1031,0 16 -
21.02.2020 16:00:00 5,6 -8,3 11 6 - - NE 1031,3 16 -
21.02.2020 15:00:00 3,9 -7,8 5 3 - - - 1031,9 16 -
21.02.2020 14:00:00 3,9 -6,7 15 8 - - NNW 1032,4 16 -
21.02.2020 13:00:00 2,2 -7,2 16 9 - - N 1033,4 16 -
21.02.2020 12:00:00 0,6 -7,2 13 7 - - NNE 1034,0 16 -
21.02.2020 11:00:00 -0,6 -7,8 21 11 - - N 1034,0 16 -
21.02.2020 10:00:00 -1,1 -6,7 24 13 - - N 1033,6 16 -
21.02.2020 09:00:00 -1,7 -6,1 18 10 - - N 1032,9 16 -

tt = temperature
td = dewpoint
ff = wind speed
fx = gusts
dd = wind direction
ppp = reduced air pressure
vv = visibility
rr = precipitation

Next stations